View from above orbital plane
|
View from above satellite
|
Ground track
|
The orbit data is extracted from the following two-line orbital elements,
1 39057U 13001A 21025.74275602 .00000025 00000-0 10984-3 0 9994
2 39057 82.5005 4.9063 0027798 1.5361 358.5804 12.42911942364244
Epoch (UTC): | 25 January 2021 17:49:34 |
Eccentricity: | 0.0027798 |
inclination: | 82.5005° |
perigee height: | 1472 km |
apogee height: | 1516 km |
right ascension of ascending node: | 4.9063° |
argument of perigee: | 1.5361° |
revolutions per day: | 12.42911942 |
mean anomaly at epoch: | 358.5804° |
orbit number at epoch: | 36424 |
The dashed part of the orbit path shows where the satellite is in the earth's shadow,
|
|